{"data":{"norad_id":49433,"epoch":"2026-09-20T03:18:23.626080Z","epoch_age_seconds":42429,"freshness":"FRESH","line1":"1 49433U 21104AB  26263.13777345  .00000694  00000+0  31688-4 0  9995","line2":"2 49433  53.1625  51.6092 0000814  71.7510 288.3581 15.34386746269418","mean_motion":15.34386746,"eccentricity":8.14e-5,"inclination_deg":53.1625,"raan_deg":51.6092,"arg_perigee_deg":71.751,"mean_anomaly_deg":288.3581,"bstar":3.1688e-5,"rev_number":26941,"period_min":93.848568736268,"perigee_km":462.1857865696,"apogee_km":463.29948177405,"semimajor_km":6840.8796341718,"source":"CELESTRAK","updated_at":"2026-09-20T09:00:39.259707Z"}}